Home > Weather > Springe > Past weeks

Flag for Germany Weather for the Past 2 Weeks in Springe, Lower Saxony, Germany

Now
48 °F

Cool.


Feels Like: 44 °F
Forecast: 42 / 60 °F
Wind: 9 mph from Northwest

Location: Wunstorf Airport

Current Time: Apr 30, 2016 at 4:04:09 PM

Latest Report: Apr 30, 2016 at 3:20 PM


Visibility: 5 mi

Pressure: 30.09 "Hg

Humidity: 66%

Dew Point: 37 °F

Location of SpringeLocation

Historic Weather in Springe — Graph

°F

Springe Temperature Yesterday

Maximum temperature yesterday: 55 °F (at 1:20 PM)
Minimum temperature yesterday: 34 °F (at 1:20 AM)
Average temperature yesterday: 46 °F

High & Low Weather Summary for the Past Weeks

 TemperatureHumidityPressure
High61 °F (Apr 16, 4:20 PM)100% (Apr 30, 5:20 AM)30.45 "Hg (Apr 30, 5:20 AM)
Low32 °F (Apr 21, 5:20 AM)31% (Apr 21, 4:20 PM)29.39 "Hg (Apr 26, 1:20 PM)
Average44 °F70%29.90 "Hg
* Reported Apr 15 2:02 PM — Apr 30 2:20 PM, Springe, Weather by CustomWeather, © 2016

Note: Actual official high and low records may vary slightly from our data, if they occured in-between our weather recording intervals... More about our weather records

Advertising

Springe Weather History for the Previous 24 Hours

Scroll right to see more
 ConditionsComfort  
Time TempWeatherWind HumidityBarometerVisibility
2:20 PM
Sat, Apr 30
48 °FCool.9 mph71%30.09 "Hg5 mi
1:20 PM46 °FCool.10 mph76%30.09 "Hg4 mi
12:20 PM46 °FCool.12 mph76%30.07 "Hg5 mi
11:20 AM46 °FCool.12 mph76%30.07 "Hg5 mi
10:20 AM46 °FCool.10 mph76%30.07 "Hg4 mi
9:20 AM46 °FCool.6 mph76%30.04 "Hg4 mi
8:20 AM45 °FQuite cool.1 mph81%30.04 "Hg4 mi
7:20 AM41 °FQuite cool.No wind87%30.01 "Hg4 mi
6:20 AM39 °FChilly.No wind93%30.01 "Hg2 mi
5:20 AM37 °FChilly.3 mph100%30.01 "Hg3 mi
4:20 AM37 °FChilly.5 mph93%30.01 "Hg3 mi
3:20 AM37 °FChilly.5 mph93%30.01 "Hg3 mi
2:20 AM39 °FChilly.2 mph93%30.01 "Hg3 mi
1:20 AM41 °FQuite cool.3 mph87%30.01 "Hg3 mi
12:20 AM43 °FQuite cool.No wind87%30.01 "Hg4 mi
11:20 PM
Fri, Apr 29
45 °FQuite cool.1 mph81%30.01 "Hg4 mi
10:20 PM46 °FCool.6 mph82%30.01 "Hg4 mi
9:20 PM48 °FCool.3 mph71%29.98 "Hg5 mi
8:20 PM50 °FCool.7 mph54%29.98 "Hg5 mi
7:20 PM54 °FCool.12 mph44%29.95 "Hg5 mi
6:20 PM55 °FRefreshingly cool.18 mph41%29.95 "Hg6 mi
5:20 PM55 °FRefreshingly cool.17 mph41%29.95 "Hg6 mi
4:20 PM55 °FRefreshingly cool.20 mph41%29.95 "Hg6 mi
Weather by CustomWeather, © 2016

See weather overviewHow to use our weather pages